DW8004 Weather Reports


time (UTC)temp
C
wind
direction
speed
KPH
gust
KPH
rain 1hr
cm
rain 24hr
cm
rain mn
cm
humidity
%
barometer
mb
20260503221529 8 288 0.0 0.0 0.00 0.00 0.00 48 1007.8
20260503220028 8 319 0.0 0.0 0.00 0.00 0.00 47 1008.0
20260503214527 7 215 0.0 0.0 0.00 0.00 0.00 47 1007.9
20260503213055 7 232 0.0 0.0 0.00 0.00 0.00 48 1007.9
20260503211608 7 306 0.0 0.0 0.00 0.00 0.00 49 1008.0
20260503210036 7 5 0.0 0.0 0.00 0.00 0.00 49 1007.9
20260503204610 7 288 0.0 0.0 0.00 0.00 0.00 51 1007.9
20260503203036 6 263 0.0 0.0 0.00 0.00 0.00 52 1008.0
20260503201531 7 286 0.0 0.0 0.00 0.00 0.00 51 1008.2
20260503200105 7 348 0.0 0.0 0.00 0.00 0.00 50 1008.2
20260503194549 7 300 0.0 0.0 0.00 0.00 0.00 51 1008.4
20260503193033 6 209 0.0 0.0 0.00 0.00 0.00 50 1008.5
20260503191537 6 272 0.0 0.0 0.00 0.00 0.00 50 1008.5
20260503190016 6 327 0.0 0.0 0.00 0.00 0.00 50 1008.5
20260503184609 6 282 0.0 0.0 0.00 0.00 0.00 49 1008.6
20260503183020 6 237 0.0 0.0 0.00 0.00 0.00 50 1008.4
20260503181616 6 236 0.0 0.0 0.00 0.00 0.00 51 1008.6
20260503180016 6 302 0.0 0.0 0.00 0.00 0.00 54 1008.4
20260503174501 5 275 0.0 0.0 0.00 0.00 0.00 54 1008.5
20260503173036 6 308 0.0 0.0 0.00 0.00 0.00 54 1008.5
20260503171639 6 318 0.0 0.0 0.00 0.00 0.00 52 1008.4
20260503150133 5 275 0.0 0.0 0.00 0.00 0.00 59 1008.8
20260503081538 2 295 0.0 0.0 0.00 0.03 0.00 79 1009.0
20260503071525 1 13 0.0 0.0 0.00 0.10 0.00 83 1009.7
20260503070114 1 67 0.0 0.0 0.00 0.10 0.00 86 1009.7
20260503054558 0 200 0.0 0.0 0.00 0.13 0.00 84 1010.2
20260503053107 1 225 0.0 0.0 0.00 0.13 0.00 84 1010.4
20260503051554 0 221 0.0 0.0 0.00 0.13 0.00 86 1010.5
20260503050017 0 221 0.0 0.0 0.00 0.15 0.00 86 1010.9
20260503044604 0 221 0.0 0.0 0.00 0.15 0.00 85 1011.0
20260503043011 0 221 0.0 0.0 0.00 0.15 0.00 85 1011.0
20260503041559 0 221 0.0 0.0 0.00 0.15 0.00 84 1011.3
20260503040106 0 221 0.0 0.0 0.00 0.15 0.00 83 1011.3
20260503034524 0 221 0.0 0.0 0.00 0.15 0.15 82 1011.5
20260503033002 0 221 0.0 0.0 0.00 0.15 0.15 82 1011.7
20260503031541 0 221 0.0 0.0 0.00 0.15 0.15 81 1011.5
20260503030023 1 221 0.0 0.0 0.00 0.15 0.15 79 1011.5
20260503024509 1 221 0.0 0.0 0.00 0.15 0.15 77 1011.5
20260503023012 2 221 0.0 0.0 0.00 0.15 0.15 76 1011.5
20260503021603 2 221 0.0 0.0 0.00 0.15 0.15 75 1011.5
20260503020035 2 221 0.0 0.0 0.00 0.15 0.15 73 1011.7
20260503014508 2 221 0.0 0.0 0.00 0.15 0.15 73 1011.6
20260503013118 3 221 0.0 0.0 0.00 0.15 0.15 71 1011.5
20260503011539 3 221 0.0 0.0 0.00 0.15 0.15 69 1011.5
20260503010027 3 221 0.0 0.0 0.00 0.15 0.15 67 1011.5
20260503004606 4 221 0.0 0.0 0.00 0.15 0.15 66 1011.2
20260503003045 5 221 0.0 0.0 0.00 0.15 0.15 61 1011.3
20260503001517 5 236 0.0 0.0 0.00 0.15 0.15 60 1011.2
20260503000029 5 234 0.0 0.0 0.00 0.15 0.15 55 1010.9
20260502234548 6 295 0.0 0.0 0.00 0.15 0.15 54 1010.9
20260502233022 6 256 0.0 0.0 0.00 0.15 0.15 55 1010.6
20260502231502 6 259 0.0 0.0 0.00 0.15 0.15 53 1010.5
20260502230103 7 215 0.0 0.0 0.00 0.15 0.15 52 1010.3
20260502224604 7 273 0.0 0.0 0.00 0.15 0.15 54 1010.0
20260502223032 8 217 0.0 0.0 0.00 0.15 0.15 51 1009.9